#timestamp,LO_Frequency,Hit,StdDev 
1594656015.1,286046999.7,N
1594656016.0,286046999.7,N
1594656035.8,286047000.7,N
1594656055.6,286046998.2,N
1594656075.5,286047000.9,N
1594656095.3,286047000.6,N
1594656115.1,286047000.4,N
1594656135.9,286046998.4,N
1594656155.7,286046999.0,N
1594656175.6,286047000.3,N
1594656195.4,286047000.8,N
1594656215.2,286046998.1,N
1594656235.1,286046998.6,N
1594656236.0,286046998.6,N
1594656255.8,286047002.7,N
1594656275.7,286047000.3,N
1594656295.5,286047000.4,N
1594656315.3,286047000.6,N
1594656335.2,286047000.6,N
1594656355.0,286047000.3,N
1594656355.9,286047000.3,N
1594656375.8,286047000.9,N
1594656395.6,286046999.9,N
1594656415.4,286047000.8,N
1594656435.3,286046998.6,N
1594656455.1,286046998.1,N
1594656475.9,286047000.0,N
1594656495.7,286046999.7,N
1594656515.5,286047002.7,N
1594656535.4,286047002.6,N
1594656555.2,286047002.0,N
1594656575.0,286047002.6,N
1594656575.9,286047002.6,N
1594656595.8,286047002.1,N
1594656615.6,286046999.7,N
1594656635.5,286047002.3,N
1594656655.3,286047001.7,N
1594656675.1,286047001.9,N
1594656695.9,286047004.4,Y
1594656715.7,286047001.7,P
1594656735.6,286047002.0,P
1594656755.4,286047002.6,P
1594656775.2,286047002.6,Y
1594656795.1,286047001.2,P
1594656796.0,286047001.2,P
1594656815.8,286047002.8,P
1594656835.7,286047001.0,N
1594656855.5,286046998.2,N
1594656875.3,286046998.5,N
1594656895.2,286046999.4,N
1594656915.0,286046996.5,N
1594656915.9,286046996.5,N
1594656935.8,286046999.1,N
1594656955.6,286046996.9,N
1594656975.4,286046996.8,N
1594656995.3,286046997.1,N
1594657015.1,286046999.6,N
1594657035.9,286046997.2,N
1594657055.7,286046997.6,N
1594657075.5,286046997.9,N
1594657095.4,286046997.1,N
1594657115.2,286046995.3,N
1594657135.1,286046995.2,N
1594657136.0,286046995.2,N
1594657155.8,286046995.3,N
1594657175.6,286046997.6,N
1594657195.5,286046995.0,N
1594657215.3,286046994.9,N
1594657235.2,286046995.4,N
1594657255.9,286046998.0,N
1594657275.7,286046997.9,N
1594657295.6,286046997.8,N
1594657315.4,286046997.7,N
1594657335.2,286046997.1,N
1594657355.1,286046997.7,N
1594657356.0,286046997.7,N
1594657375.8,286046997.0,N
1594657395.7,286046997.4,N
1594657415.5,286046997.3,N
1594657435.3,286046997.3,N
1594657455.2,286046995.0,Y
1594657475.0,286047001.2,P
1594657475.9,286047001.2,N
1594657495.8,286047000.7,N
1594657515.6,286047000.6,N
1594657535.4,286047001.1,N
1594657555.3,286047000.8,N
1594657575.1,286047000.9,N
1594657595.8,286046999.9,N
1594657615.7,286046999.7,N
1594657635.5,286046999.8,N
1594657655.4,286046999.8,N
1594657675.2,286046999.9,N
1594657695.0,286047002.4,N
1594657695.9,286047002.4,N
1594657715.8,286047002.3,N
1594657735.6,286047002.3,N
1594657755.5,286046999.8,N
1594657775.3,286047002.7,N
1594657795.1,286047002.2,N
1594657815.9,286047002.1,N
1594657835.7,286047002.0,N
1594657855.6,286047001.6,N
1594657875.4,286047001.4,N
1594657895.2,286047004.3,Y
1594657915.1,286047002.4,P
1594657916.0,286047002.4,P
1594657935.8,286047002.7,P
1594657955.7,286047002.7,Y
1594657975.5,286046998.8,P
1594657995.3,286046998.9,N
1594658015.2,286046998.6,N
1594658035.0,286046999.2,N
1594658035.9,286046999.2,N
1594658055.8,286046999.3,N
1594658075.6,286046998.4,N
1594658095.4,286046998.2,N
1594658115.3,286046998.5,N
1594658135.1,286047000.3,N
1594658155.9,286047000.2,N
1594658175.7,286047000.3,N
1594658195.5,286047000.2,N
1594658215.4,286047002.4,N
1594658235.2,286047000.5,N
1594658255.0,286047000.3,N
1594658255.9,286047000.3,N
1594658275.8,286046998.1,N
1594658295.6,286047000.9,N
1594658315.5,286046998.5,N
1594658335.3,286046998.5,N
1594658355.1,286047000.7,N
1594658375.9,286046998.6,N
1594658395.7,286046998.6,N
1594658415.5,286046999.0,N
1594658435.4,286046998.7,N
1594658455.2,286046998.7,N
1594658475.1,286046998.8,N
1594658476.0,286046998.8,N
1594658495.8,286046998.1,N
1594658515.6,286046998.8,N
1594658535.5,286046999.1,N
1594658555.3,286046999.0,N
1594658575.2,286046996.5,Y
1594658595.9,286046998.8,P
1594658615.7,286046998.3,P
1594658635.6,286046998.4,P
1594658655.4,286046998.3,Y
1594658675.3,286047002.7,P
1594658695.1,286047000.3,N
1594658696.0,286047000.3,N
1594658715.8,286047000.1,N
1594658735.7,286047000.6,N
1594658755.5,286047000.1,N
1594658775.4,286046999.9,N
1594658795.2,286047000.4,N
1594658815.0,286047000.9,N
1594658815.9,286047000.9,N
1594658835.8,286047000.3,N
1594658855.6,286047000.4,N
1594658875.4,286046999.7,N
1594658895.3,286047000.8,N
1594658915.1,286046999.9,N
1594658935.9,286047001.0,N
1594658955.7,286046999.7,N
1594658975.5,286047002.7,Y
1594658995.4,286046999.7,P
1594659015.2,286047002.6,P
1594659035.1,286047000.2,N
1594659036.0,286047000.2,N
1594659055.8,286047002.8,N
1594659075.6,286047000.0,N
1594659095.5,286047000.7,N
1594659115.3,286046998.3,N
1594659135.1,286046998.3,N
1594659155.9,286046998.7,N
1594659175.7,286046998.7,N
1594659195.6,286046999.9,N
1594659215.4,286046999.7,N
1594659235.2,286047000.3,N
1594659255.1,286047000.0,N
1594659256.0,286047000.0,N
1594659275.8,286047002.5,N
1594659295.7,286047004.0,Y
1594659315.5,286047004.1,P
1594659335.3,286047001.7,N
1594659355.2,286047002.6,N
1594659375.9,286046999.9,N
1594659395.7,286047000.0,N
1594659415.6,286046998.3,N
1594659435.4,286046998.7,N
1594659455.3,286047001.4,N
1594659475.1,286047004.0,N
1594659476.0,286047004.0,N
1594659495.8,286046999.8,N
1594659515.7,286047000.7,N
1594659535.5,286046996.9,N
1594659555.4,286046996.8,N
1594659575.2,286046997.0,N
1594659595.0,286046998.0,N
1594659595.9,286046998.0,N
